GW4350 Weather Reports


Display with metric or nautical units.
time (UTC)temp
F
wind
direction
speed
MPH
gust
MPH
rain 1hr
in
rain 24hr
in
rain mn
in
humidity
%
barometer
mb
20260505052743 60 175 2.0 2.0 0.00 0.00 0.00 67 999.0
20260505052240 60 270 1.0 2.0 0.00 0.00 0.00 67 998.9
20260505051737 60 145 0.0 1.0 0.00 0.00 0.00 66 998.9
20260505051235 60 198 2.0 2.0 0.00 0.00 0.00 66 999.2
20260505050732 60 165 1.0 1.0 0.00 0.00 0.00 65 999.0
20260505050230 60 153 2.0 2.0 0.00 0.00 0.00 65 999.0
20260505041654 61 176 2.0 3.0 0.00 0.00 0.00 59 998.7
20260505041152 61 154 2.0 2.0 0.00 0.00 0.00 58 998.7
20260505040648 61 170 2.0 3.0 0.00 0.00 0.00 58 998.6
20260505040146 61 171 2.0 2.0 0.00 0.00 0.00 57 998.8
20260505035642 61 159 1.0 1.0 0.00 0.00 0.00 57 998.7
20260505035138 61 167 3.0 3.0 0.00 0.00 0.00 56 998.7
20260505034635 61 157 1.0 1.0 0.00 0.00 0.00 56 998.8
20260505034132 61 183 2.0 2.0 0.00 0.00 0.00 56 998.6
20260505033628 61 153 1.0 1.0 0.00 0.00 0.00 56 998.9
20260505033127 62 156 2.0 2.0 0.00 0.00 0.00 55 998.8
20260505032624 62 161 0.0 1.0 0.00 0.00 0.00 54 998.7
20260505032120 62 157 0.0 1.0 0.00 0.00 0.00 53 998.7
20260505031618 63 157 3.0 5.0 0.00 0.00 0.00 53 998.9
20260505031114 63 159 4.0 7.0 0.00 0.00 0.00 53 998.9
20260505030612 63 156 1.0 1.0 0.00 0.00 0.00 52 998.8
20260505030107 63 170 1.0 2.0 0.00 0.00 0.00 52 998.8
20260505025602 63 153 1.0 2.0 0.00 0.00 0.00 52 998.8
20260505025057 63 153 1.0 1.0 0.00 0.00 0.00 52 998.7
20260505024553 63 149 2.0 3.0 0.00 0.00 0.00 52 999.1
20260505024051 63 158 1.0 2.0 0.00 0.00 0.00 53 999.1
20260505023547 64 132 3.0 5.0 0.00 0.00 0.00 52 999.0
20260505023045 64 208 3.0 3.0 0.00 0.00 0.00 52 999.1
20260505022543 64 183 1.0 2.0 0.00 0.00 0.00 52 999.3
20260505022040 64 163 1.0 1.0 0.00 0.00 0.00 52 999.3
20260505021536 64 180 2.0 2.0 0.00 0.00 0.00 51 999.2
20260505021032 64 147 1.0 1.0 0.00 0.00 0.00 51 999.1
20260505020526 65 137 2.0 2.0 0.00 0.00 0.00 50 999.0
20260505020024 65 179 2.0 2.0 0.00 0.00 0.00 49 999.2
20260505015520 65 159 1.0 1.0 0.00 0.00 0.00 49 998.9
20260505015017 65 197 2.0 2.0 0.00 0.00 0.00 49 999.0
20260505014514 65 182 2.0 2.0 0.00 0.00 0.00 48 999.1
20260505014012 65 176 2.0 2.0 0.00 0.00 0.00 49 998.8
20260505013508 65 221 3.0 5.0 0.00 0.00 0.00 48 998.9
20260505013006 65 163 1.0 2.0 0.00 0.00 0.00 48 999.1
20260505012504 66 190 3.0 3.0 0.00 0.00 0.00 48 998.8
20260505012000 66 182 2.0 2.0 0.00 0.00 0.00 48 999.1
20260505011456 66 182 2.0 3.0 0.00 0.00 0.00 48 998.8
20260505010953 66 195 2.0 2.0 0.00 0.00 0.00 47 998.8
20260505010449 66 152 2.0 2.0 0.00 0.00 0.00 47 998.7
20260505005945 66 134 1.0 2.0 0.00 0.00 0.00 47 998.6
20260505005442 66 162 1.0 2.0 0.00 0.00 0.00 47 998.7
20260505004940 66 181 2.0 2.0 0.00 0.00 0.00 47 998.5
20260505004436 66 179 1.0 1.0 0.00 0.00 0.00 46 998.6
20260505003933 66 181 2.0 2.0 0.00 0.00 0.00 46 998.5
20260505003430 66 172 1.0 1.0 0.00 0.00 0.00 46 998.6
20260505002926 66 141 3.0 3.0 0.00 0.00 0.00 45 998.3
20260505002423 66 174 0.0 0.0 0.00 0.00 0.00 46 998.3
20260505001921 67 161 0.0 0.0 0.00 0.00 0.00 45 998.5
20260505001419 67 166 1.0 1.0 0.00 0.00 0.00 45 998.4
20260505000915 67 164 0.0 0.0 0.00 0.00 0.00 45 998.4
20260505000408 67 162 1.0 1.0 0.00 0.00 0.00 44 998.5
20260504235904 68 167 1.0 2.0 0.00 0.00 0.00 44 998.7
20260504235401 68 176 1.0 2.0 0.00 0.00 0.00 43 998.1
20260504234857 68 153 0.0 1.0 0.00 0.00 0.00 43 998.1
20260504234355 68 174 2.0 2.0 0.00 0.00 0.00 43 998.3
20260504233851 68 162 1.0 1.0 0.00 0.00 0.00 43 997.9
20260504233347 69 182 2.0 2.0 0.00 0.00 0.00 42 998.1
20260504232844 69 185 2.0 2.0 0.00 0.00 0.00 41 998.4
20260504232341 69 171 2.0 3.0 0.00 0.00 0.00 41 998.1
20260504231838 69 163 1.0 1.0 0.00 0.00 0.00 41 998.0
20260504231335 70 181 3.0 3.0 0.00 0.00 0.00 40 998.2
20260504230831 70 101 2.0 3.0 0.00 0.00 0.00 41 998.3
20260504230329 70 195 1.0 1.0 0.00 0.00 0.00 39 998.1
20260504225827 70 198 3.0 7.0 0.00 0.00 0.00 39 998.2
20260504225323 71 185 2.0 3.0 0.00 0.00 0.00 39 998.2
20260504224821 71 168 0.0 0.0 0.00 0.00 0.00 39 998.2
20260504224318 71 149 1.0 1.0 0.00 0.00 0.00 39 998.2
20260504223814 71 202 4.0 5.0 0.00 0.00 0.00 39 998.1
20260504223310 71 204 2.0 3.0 0.00 0.00 0.00 39 998.1
20260504222807 71 177 3.0 3.0 0.00 0.00 0.00 38 998.2
20260504222305 71 193 1.0 2.0 0.00 0.00 0.00 38 998.2
20260504221802 71 166 2.0 2.0 0.00 0.00 0.00 38 998.1
20260504221258 71 201 3.0 5.0 0.00 0.00 0.00 38 998.3
20260504220755 72 230 3.0 3.0 0.00 0.00 0.00 37 998.1
20260504220252 72 187 4.0 5.0 0.00 0.00 0.00 37 998.1
20260504215749 72 208 5.0 7.0 0.00 0.00 0.00 37 998.3
20260504215246 72 220 5.0 6.0 0.00 0.00 0.00 37 998.3
20260504214742 72 193 2.0 2.0 0.00 0.00 0.00 37 998.4
20260504214239 72 167 3.0 3.0 0.00 0.00 0.00 36 998.5
20260504213735 72 174 3.0 3.0 0.00 0.00 0.00 37 998.3
20260504213231 72 183 3.0 3.0 0.00 0.00 0.00 36 998.3
20260504212729 71 169 3.0 5.0 0.00 0.00 0.00 38 998.4
20260504212225 71 163 2.0 3.0 0.00 0.00 0.00 38 998.2
20260504211723 72 196 3.0 3.0 0.00 0.00 0.00 38 998.2
20260504211219 72 165 1.0 2.0 0.00 0.00 0.00 38 998.2
20260504210717 72 248 4.0 6.0 0.00 0.00 0.00 37 998.3
20260504210213 71 193 2.0 2.0 0.00 0.00 0.00 39 998.2
20260504205710 71 158 2.0 2.0 0.00 0.00 0.00 39 998.4
20260504205207 71 179 3.0 3.0 0.00 0.00 0.00 39 998.2
20260504204706 71 154 2.0 2.0 0.00 0.00 0.00 38 998.2
20260504204204 71 224 4.0 6.0 0.00 0.00 0.00 38 998.5
20260504203702 71 191 1.0 2.0 0.00 0.00 0.00 38 998.4
20260504203200 71 145 5.0 7.0 0.00 0.00 0.00 37 998.5
20260504202654 71 182 5.0 6.0 0.00 0.00 0.00 38 998.6
20260504202152 71 199 5.0 7.0 0.00 0.00 0.00 37 998.7
20260504201648 71 211 4.0 5.0 0.00 0.00 0.00 37 998.6
20260504201146 70 242 4.0 6.0 0.00 0.00 0.00 38 998.8
20260504200643 70 179 5.0 7.0 0.00 0.00 0.00 40 998.7
20260504200139 71 192 5.0 7.0 0.00 0.00 0.00 37 998.8
20260504195635 71 168 5.0 6.0 0.00 0.00 0.00 37 998.7
20260504195132 70 209 4.0 5.0 0.00 0.00 0.00 38 998.8
20260504194629 71 171 6.0 8.0 0.00 0.00 0.00 37 998.8
20260504194125 71 209 3.0 3.0 0.00 0.00 0.00 37 999.0
20260504193621 70 170 1.0 2.0 0.00 0.00 0.00 37 998.9
20260504193120 71 205 4.0 6.0 0.00 0.00 0.00 37 998.9
20260504192617 71 222 2.0 3.0 0.00 0.00 0.00 38 998.8
20260504192115 70 163 4.0 5.0 0.00 0.00 0.00 38 999.0
20260504191613 71 183 3.0 5.0 0.00 0.00 0.00 38 998.9
20260504191109 70 218 4.0 5.0 0.00 0.00 0.00 37 999.0
20260504190605 70 230 2.0 3.0 0.00 0.00 0.00 38 999.1
20260504185559 71 149 1.0 2.0 0.00 0.00 0.00 39 999.2
20260504185055 70 203 3.0 3.0 0.00 0.00 0.00 37 999.3
20260504184551 70 194 5.0 7.0 0.00 0.00 0.00 37 999.7
20260504184046 70 182 4.0 5.0 0.00 0.00 0.00 37 999.8
20260504183543 70 195 5.0 7.0 0.00 0.00 0.00 37 999.5
20260504183042 70 282 4.0 5.0 0.00 0.00 0.00 37 999.6
20260504182538 70 176 1.0 2.0 0.00 0.00 0.00 39 999.5
20260504182036 70 195 4.0 5.0 0.00 0.00 0.00 37 1000.1
20260504181532 69 213 6.0 8.0 0.00 0.00 0.00 38 999.9
20260504181031 70 208 7.0 9.0 0.00 0.00 0.00 38 1000.0
20260504180529 71 103 1.0 1.0 0.00 0.00 0.00 38 1000.0
20260504180028 69 169 3.0 5.0 0.00 0.00 0.00 40 1000.1
20260504175525 70 140 6.0 7.0 0.00 0.00 0.00 39 1000.2
20260504175022 69 159 1.0 2.0 0.00 0.00 0.00 40 1000.0
20260504174520 69 202 8.0 11.0 0.00 0.00 0.00 37 1000.2
20260504174016 69 199 3.0 5.0 0.00 0.00 0.00 38 1000.5
20260504173513 69 210 2.0 3.0 0.00 0.00 0.00 37 1000.6
20260504173011 69 238 8.0 9.0 0.00 0.00 0.00 38 1000.3
20260504172507 69 126 3.0 3.0 0.00 0.00 0.00 40 1000.5
20260504172003 69 181 3.0 3.0 0.00 0.00 0.00 41 1000.4
20260504171500 68 239 7.0 10.0 0.00 0.00 0.00 38 1000.6
20260504170957 69 201 5.0 7.0 0.00 0.00 0.00 36 1000.7
20260504170453 69 152 3.0 3.0 0.00 0.00 0.00 38 1001.0
20260504160413 67 175 5.0 8.0 0.00 0.00 0.00 39 1001.7
20260504150837 66 176 3.0 5.0 0.00 0.00 0.00 42 1002.4
20260504150333 64 281 4.0 9.0 0.00 0.00 0.00 40 1002.3
20260504141303 62 121 5.0 6.0 0.00 0.00 0.00 54 1002.2
20260504140800 61 153 1.0 2.0 0.00 0.00 0.00 58 1002.2
20260504140255 61 183 4.0 5.0 0.00 0.00 0.00 56 1002.3
20260504130724 57 121 2.0 2.0 0.00 0.00 0.00 65 1002.6
20260504130220 58 140 2.0 2.0 0.00 0.00 0.00 65 1002.8
20260504120144 51 130 2.0 2.0 0.00 0.00 0.00 77 1003.0
20260504110612 46 157 0.0 0.0 0.00 0.00 0.00 81 1003.2
20260504110108 46 169 0.0 0.0 0.00 0.00 0.00 81 1003.2
20260504100534 43 178 0.0 0.0 0.00 0.00 0.00 80 1003.2
20260504081927 44 160 0.0 0.0 0.00 0.00 0.00 69 1002.9
20260504081424 44 162 0.0 0.0 0.00 0.00 0.00 69 1003.0
20260504080920 45 162 0.0 0.0 0.00 0.00 0.00 68 1003.0
20260504080417 45 162 0.0 0.0 0.00 0.00 0.00 67 1003.1
20260504070344 46 159 0.0 0.0 0.00 0.00 0.00 60 1003.0